This is the latest recevied weather packets stored in our database for station/object K2CAT. If no packets are shown the sender has not sent any weather packets the latest 10 day(s).
| Time | Temp. | Humidity | Pressure | Rain* | Wind** | Luminosity | Snow |
|---|---|---|---|---|---|---|---|
| 1777756727 | 13.89° C | 38% | 1010.3 hPa | 0 mm | - | 57 W/m² | - |
| 1777756423 | 13.89° C | 38% | 1010.3 hPa | 0 mm | - | 64 W/m² | - |
| 1777756121 | 14.44° C | 37% | 1010.3 hPa | 0 mm | - | 77 W/m² | - |
| 1777755818 | 14.44° C | 36% | 1010.2 hPa | 0 mm | - | 79 W/m² | - |
| 1777755515 | 14.44° C | 36% | 1010.2 hPa | 0 mm | - | 95 W/m² | - |
| 1777755211 | 14.44° C | 36% | 1010.2 hPa | 0 mm | - | 119 W/m² | - |
| 1777754908 | 14.44° C | 36% | 1010.1 hPa | 0 mm | - | 116 W/m² | - |
| 1777754605 | 14.44° C | 37% | 1010 hPa | 0 mm | - | 103 W/m² | - |
| 1777754302 | 14.44° C | 39% | 1010.1 hPa | 0 mm | - | 138 W/m² | - |
| 1777754000 | 14.44° C | 36% | 1010.3 hPa | 0 mm | - | 149 W/m² | - |
| 1777753700 | 15° C | 36% | 1010.3 hPa | 0 mm | - | 148 W/m² | - |
| 1777753399 | 15° C | 38% | 1010.2 hPa | 0 mm | - | 165 W/m² | - |
| 1777753096 | 14.44° C | 36% | 1010.4 hPa | 0 mm | - | 167 W/m² | - |
| 1777752792 | 15° C | 36% | 1010.4 hPa | 0 mm | - | 151 W/m² | - |
| 1777752488 | 15.56° C | 35% | 1010.3 hPa | 0 mm | - | 152 W/m² | - |
| 1777752184 | 16.11° C | 38% | 1010.4 hPa | 0 mm | - | 176 W/m² | - |
| 1777751883 | 16.11° C | 36% | 1010.6 hPa | 0 mm | - | 358 W/m² | - |
| 1777751579 | 15.56° C | 35% | 1010.5 hPa | 0 mm | - | 404 W/m² | - |
| 1777751275 | 15.56° C | 37% | 1010.6 hPa | 0 mm | - | 420 W/m² | - |
| 1777750973 | 15° C | 36% | 1010.6 hPa | 0 mm | - | 203 W/m² | - |
| 1777750668 | 15.56° C | 38% | 1010.6 hPa | 0 mm | - | 173 W/m² | - |
| 1777750366 | 15.56° C | 38% | 1010.8 hPa | 0 mm | - | 211 W/m² | - |
| 1777750066 | 16.11° C | 39% | 1010.8 hPa | 0 mm | - | 567 W/m² | - |
| 1777749764 | 15.56° C | 36% | 1011 hPa | 0 mm | - | 479 W/m² | - |
| 1777749460 | 15° C | 34% | 1011 hPa | 0 mm | - | 256 W/m² | - |
* Rain latest hour (hover to see other rain measurements)
** Current wind speed in m/s (hover to see current wind gust speed)